GW7256 Weather Reports


Display with metric or nautical units.
time (UTC)temp
F
wind
direction
speed
MPH
gust
MPH
rain 1hr
in
rain 24hr
in
rain mn
in
humidity
%
barometer
mb
20260508015556 54 182 0.0 0.0 0.00 0.98 0.98 92 1010.8
20260508015053 54 167 1.0 1.0 0.00 0.98 0.98 92 1010.5
20260508014549 54 195 0.0 1.0 0.00 0.98 0.98 92 1010.1
20260508014046 54 157 0.0 0.0 0.00 0.98 0.98 93 1010.4
20260508013542 54 156 0.0 0.0 0.00 0.98 0.98 92 1010.2
20260508013039 54 156 0.0 1.0 0.00 0.98 0.98 92 1010.1
20260508012536 54 163 0.0 0.0 0.00 0.98 0.98 92 1010.1
20260508012034 54 171 1.0 1.0 0.00 0.98 0.98 91 1010.0
20260508011532 54 150 0.0 0.0 0.00 0.98 0.98 91 1010.3
20260508011029 54 150 0.0 0.0 0.00 0.98 0.98 91 1010.0
20260508010525 54 150 0.0 1.0 0.00 0.98 0.98 91 1010.3
20260508010023 54 150 0.0 0.0 0.00 0.98 0.98 91 1010.0
20260508005520 54 146 0.0 0.0 0.00 0.98 0.98 91 1010.0
20260508005017 54 205 1.0 1.0 0.00 0.98 0.98 91 1009.8
20260508004513 54 143 0.0 1.0 0.00 0.98 0.98 91 1009.7
20260508004010 54 162 0.0 0.0 0.00 0.98 0.98 91 1009.9
20260508003506 54 164 0.0 1.0 0.00 0.98 0.98 90 1010.2
20260508003004 54 27 1.0 2.0 0.00 0.98 0.98 90 1010.0
20260508002459 54 300 1.0 2.0 0.00 0.98 0.98 90 1010.0
20260508001956 54 180 0.0 2.0 0.00 0.98 0.98 90 1009.4
20260508001452 54 186 1.0 2.0 0.00 0.98 0.98 90 1009.4
20260508000949 54 223 2.0 2.0 0.00 0.98 0.98 90 1009.0
20260508000444 54 245 1.0 3.0 0.00 0.98 0.98 89 1009.0
20260507235942 54 200 1.0 1.0 0.00 0.98 0.98 90 1009.3
20260507235438 54 149 0.0 0.0 0.00 0.98 0.98 91 1009.0
20260507234936 54 149 0.0 1.0 0.00 0.98 0.98 89 1008.9
20260507234432 54 150 0.0 1.0 0.00 0.98 0.98 90 1009.0
20260507233929 54 136 0.0 1.0 0.00 0.98 0.98 90 1008.8
20260507233426 54 154 0.0 1.0 0.00 0.98 0.98 90 1009.0
20260507232925 54 146 0.0 1.0 0.00 0.98 0.98 89 1008.7
20260507232420 54 146 0.0 4.0 0.00 0.98 0.98 89 1008.6
20260507231918 54 225 2.0 2.0 0.00 0.98 0.98 89 1008.9
20260507231414 54 136 0.0 2.0 0.00 0.98 0.98 89 1009.0
20260507230911 54 173 1.0 1.0 0.00 0.98 0.98 89 1009.0
20260507230408 54 156 0.0 3.0 0.00 0.98 0.98 89 1008.9
20260507225908 54 268 2.0 2.0 0.00 0.98 0.98 89 1008.7
20260507225405 54 148 0.0 1.0 0.00 0.98 0.98 89 1008.9
20260507224901 54 191 1.0 2.0 0.00 0.98 0.98 89 1008.4
20260507224357 54 262 1.0 3.0 0.00 0.98 0.98 87 1008.5
20260507223854 54 233 2.0 3.0 0.00 0.98 0.98 87 1008.4
20260507223350 55 286 2.0 3.0 0.00 0.98 0.98 88 1008.5
20260507222847 55 41 4.0 7.0 0.00 0.98 0.98 87 1008.4
20260507222343 55 193 1.0 6.0 0.00 0.98 0.98 87 1008.7
20260507221840 55 190 1.0 2.0 0.00 0.98 0.98 87 1008.5
20260507221337 55 301 2.0 3.0 0.00 0.98 0.98 87 1008.7
20260507220833 55 147 1.0 2.0 0.00 0.98 0.98 87 1008.7
20260507220331 55 144 1.0 3.0 0.00 0.98 0.98 87 1008.6
20260507215827 55 7 4.0 6.0 0.00 0.98 0.98 87 1008.4
20260507215325 55 305 4.0 6.0 0.00 0.98 0.98 88 1008.3
20260507214822 55 238 2.0 6.0 0.00 0.98 0.98 88 1008.6
20260507214320 55 137 2.0 3.0 0.00 0.98 0.98 88 1008.4
20260507213819 55 154 2.0 2.0 0.00 0.98 0.98 88 1008.4
20260507213317 55 150 1.0 4.0 0.00 0.98 0.98 89 1008.5
20260507212814 54 171 0.0 6.0 0.00 0.98 0.98 89 1008.4
20260507212310 54 0 4.0 4.0 0.00 0.98 0.98 89 1008.5
20260507211806 54 226 0.0 2.0 0.00 0.98 0.98 90 1008.3
20260507211303 54 212 2.0 7.0 0.00 0.98 0.98 89 1008.2
20260507210800 54 122 0.0 4.0 0.00 0.98 0.98 89 1008.1
20260507210257 54 303 5.0 9.0 0.00 0.98 0.98 88 1008.0
20260507205753 54 326 4.0 11.0 0.00 0.98 0.98 90 1007.8
20260507205250 55 333 4.0 7.0 0.00 0.98 0.98 89 1007.9
20260507204746 55 179 0.0 1.0 0.00 0.98 0.98 92 1007.9
20260507204244 55 198 1.0 1.0 0.00 0.98 0.98 91 1007.9
20260507203742 55 36 2.0 8.0 0.00 0.98 0.98 90 1007.9
20260507203239 55 186 2.0 7.0 0.00 0.98 0.98 90 1007.8
20260507202735 55 158 1.0 4.0 0.00 0.98 0.98 91 1007.7
20260507202231 56 188 1.0 3.0 0.00 0.98 0.98 92 1007.6
20260507201726 56 257 3.0 4.0 0.00 0.98 0.98 92 1007.4
20260507201224 56 1 3.0 4.0 0.00 0.98 0.98 93 1007.4
20260507200720 56 262 2.0 2.0 0.00 0.98 0.98 93 1007.5
20260507200216 56 181 0.0 2.0 0.00 0.98 0.98 93 1007.6
20260507195712 56 150 1.0 4.0 0.00 0.98 0.98 94 1007.3
20260507195210 56 354 4.0 6.0 0.00 0.98 0.98 93 1007.5
20260507194707 56 329 5.0 7.0 0.00 0.98 0.98 93 1007.6
20260507194202 56 14 3.0 4.0 0.00 0.98 0.98 93 1007.5
20260507193659 57 252 4.0 7.0 0.00 0.98 0.98 93 1007.5
20260507193156 57 288 4.0 4.0 0.00 0.98 0.98 93 1007.8
20260507192652 57 336 5.0 7.0 0.00 0.98 0.98 92 1007.4
20260507192149 58 344 3.0 4.0 0.00 0.98 0.98 92 1007.5
20260507191645 58 297 4.0 6.0 0.00 0.98 0.98 93 1007.4
20260507191142 58 294 4.0 7.0 0.00 0.98 0.98 93 1007.2
20260507190639 58 181 1.0 3.0 0.05 0.98 0.98 93 1007.3
20260507190138 58 262 3.0 3.0 0.05 0.98 0.98 92 1006.8
20260507185636 58 24 2.0 3.0 0.00 0.97 0.97 93 1007.1
20260507185132 58 278 1.0 4.0 0.00 0.97 0.97 92 1007.4
20260507184630 59 234 1.0 4.0 0.00 0.97 0.97 93 1007.5
20260507184128 59 27 2.0 7.0 0.00 0.97 0.97 93 1007.5
20260507183624 59 165 0.0 1.0 0.00 0.97 0.97 93 1006.7
20260507183121 59 172 1.0 1.0 0.00 0.97 0.97 93 1006.7
20260507182617 59 184 2.0 4.0 0.00 0.97 0.97 93 1006.6
20260507182113 59 272 3.0 4.0 0.00 0.97 0.97 93 1006.6
20260507181610 59 246 4.0 4.0 0.07 0.97 0.97 93 1006.5
20260507181107 59 287 1.0 3.0 0.14 0.97 0.97 92 1006.7
20260507180603 60 273 3.0 9.0 0.07 0.96 0.96 92 1007.3
20260507180100 60 233 3.0 9.0 0.12 0.96 0.96 92 1007.5
20260507175556 61 160 1.0 3.0 0.00 0.94 0.94 92 1007.2
20260507175054 61 204 2.0 7.0 0.00 0.94 0.94 92 1007.6
20260507174551 62 318 3.0 9.0 0.00 0.94 0.94 91 1007.0
20260507174048 64 318 4.0 6.0 0.00 0.94 0.94 89 1006.6
20260507173545 67 152 1.0 2.0 0.00 0.94 0.94 85 1006.4
20260507173042 70 127 1.0 8.0 0.00 0.94 0.94 91 1006.1
20260507172538 70 126 0.0 1.0 0.00 0.94 0.94 91 1006.0
20260507172035 70 120 1.0 1.0 0.00 0.94 0.94 91 1005.9
20260507171530 70 124 0.0 0.0 0.07 0.94 0.94 93 1006.1
20260507171028 69 123 1.0 1.0 0.07 0.94 0.94 93 1005.8
20260507170525 69 119 1.0 2.0 0.00 0.93 0.93 93 1006.1
20260507170022 69 119 1.0 1.0 0.00 0.93 0.93 94 1006.3
20260507165517 69 119 0.0 0.0 0.00 0.93 0.93 93 1006.5
20260507165014 69 117 1.0 1.0 0.05 0.93 0.93 93 1006.7
20260507164510 69 117 0.0 1.0 0.05 0.93 0.93 92 1007.1
20260507164008 69 117 0.0 0.0 0.00 0.92 0.92 93 1007.1
20260507163504 69 117 0.0 0.0 0.00 0.92 0.92 94 1007.2
20260507163002 69 117 0.0 0.0 0.00 0.92 0.92 93 1007.4
20260507162457 69 117 0.0 0.0 0.00 0.92 0.92 93 1007.4
20260507161954 69 117 0.0 0.0 0.00 0.92 0.92 93 1007.5
20260507161450 69 117 0.0 1.0 0.00 0.92 0.92 92 1007.5
20260507160947 69 117 0.0 0.0 0.00 0.92 0.92 92 1007.5
20260507160443 70 117 0.0 0.0 0.00 0.92 0.92 92 1007.9
20260507155939 70 117 0.0 0.0 0.00 0.92 0.92 92 1007.6
20260507155435 70 117 0.0 0.0 0.00 0.92 0.92 93 1007.2
20260507154932 69 117 0.0 0.0 0.00 0.92 0.92 93 1007.3
20260507154429 69 117 0.0 1.0 0.00 0.92 0.92 93 1006.8
20260507153927 68 122 0.0 0.0 0.00 0.92 0.92 94 1006.9
20260507153423 68 115 0.0 1.0 0.00 0.92 0.92 95 1007.5
20260507152919 68 132 0.0 1.0 0.00 0.92 0.92 95 1007.5
20260507152415 68 132 1.0 1.0 0.07 0.92 0.92 95 1007.8
20260507151911 67 138 0.0 1.0 0.05 0.91 0.91 95 1007.7
20260507151408 67 118 1.0 2.0 0.12 0.91 0.91 96 1007.6
20260507150905 67 140 0.0 0.0 0.12 0.90 0.90 96 1007.9
20260507150402 67 136 0.0 0.0 0.12 0.89 0.89 96 1007.8
20260507145858 67 141 2.0 2.0 0.17 0.89 0.89 96 1007.8
20260507145354 67 101 1.0 2.0 0.50 0.88 0.88 96 1007.7
20260507144852 67 148 0.0 1.0 0.73 0.86 0.86 96 1007.8
20260507144349 67 133 1.0 1.0 0.73 0.79 0.79 95 1007.8
20260507143845 67 138 1.0 3.0 1.02 0.72 0.72 95 1007.8
20260507143343 67 124 0.0 1.0 1.32 0.64 0.64 95 1008.0
20260507142839 67 143 0.0 1.0 1.13 0.52 0.52 95 1008.3
20260507142335 68 116 0.0 0.0 0.50 0.40 0.40 95 1008.1
20260507141832 68 116 0.0 0.0 0.07 0.33 0.33 95 1008.1
20260507141328 68 116 0.0 0.0 0.00 0.32 0.32 95 1007.8
20260507140825 68 116 0.0 0.0 0.05 0.32 0.32 95 1008.1
20260507140322 68 116 0.0 0.0 0.05 0.32 0.32 95 1008.2
20260507135820 67 116 0.0 0.0 0.07 0.31 0.31 95 1008.1
20260507135317 67 118 0.0 0.0 0.00 0.30 0.30 95 1008.1
20260507134814 67 117 0.0 0.0 0.00 0.30 0.30 95 1008.4
20260507134310 67 117 0.0 0.0 0.00 0.30 0.30 95 1008.2
20260507133805 67 117 0.0 0.0 0.00 0.30 0.30 95 1008.2
20260507133302 67 117 0.0 0.0 0.00 0.30 0.30 95 1008.3
20260507132800 67 117 0.0 0.0 0.12 0.30 0.30 95 1008.2
20260507132256 67 117 0.0 0.0 0.12 0.29 0.29 95 1008.1
20260507131753 67 115 0.0 1.0 0.12 0.28 0.28 95 1008.0
20260507131250 67 130 0.0 0.0 0.07 0.27 0.27 95 1008.2
20260507130747 67 130 0.0 0.0 0.00 0.26 0.26 95 1008.1
20260507130245 67 130 0.0 0.0 0.00 0.26 0.26 95 1008.2
20260507125743 67 130 0.0 0.0 0.00 0.26 0.26 96 1008.3
20260507125240 67 130 0.0 0.0 0.00 0.26 0.26 96 1008.5
20260507124737 67 130 0.0 0.0 0.05 0.26 0.26 96 1008.4
20260507124234 67 131 0.0 0.0 0.05 0.26 0.26 96 1008.3
20260507123732 67 129 0.0 2.0 0.00 0.25 0.25 96 1008.2
20260507123230 67 133 0.0 0.0 0.00 0.25 0.25 96 1008.1
20260507122724 66 133 0.0 0.0 0.07 0.25 0.25 96 1008.3
20260507122221 66 123 0.0 0.0 0.00 0.24 0.24 96 1008.3
20260507121716 66 123 0.0 0.0 0.00 0.24 0.24 96 1008.4
20260507121213 66 123 0.0 0.0 0.00 0.24 0.24 96 1008.6
20260507120709 66 123 0.0 0.0 0.00 0.24 0.24 96 1008.5
20260507120206 66 123 0.0 0.0 0.00 0.24 0.24 96 1008.3
20260507115702 66 123 0.0 0.0 0.00 0.24 0.24 96 1008.4
20260507115158 66 123 0.0 0.0 0.00 0.24 0.24 96 1008.7
20260507114654 66 123 0.0 0.0 0.00 0.24 0.24 96 1008.7
20260507114151 66 123 0.0 0.0 0.00 0.24 0.24 96 1008.9
20260507113648 66 116 1.0 1.0 0.00 0.24 0.24 96 1008.6
20260507113145 66 140 0.0 1.0 0.00 0.24 0.24 96 1008.6
20260507112643 66 111 1.0 2.0 0.00 0.24 0.24 96 1008.7
20260507112139 66 132 0.0 1.0 0.00 0.24 0.24 96 1008.7
20260507111637 66 133 0.0 1.0 0.00 0.24 0.24 96 1008.7
20260507111133 66 133 0.0 0.0 0.00 0.24 0.24 96 1008.9
20260507110630 66 135 0.0 0.0 0.00 0.24 0.24 96 1008.7
20260507110126 66 131 0.0 2.0 0.00 0.24 0.24 96 1008.4
20260507105623 66 133 0.0 2.0 0.00 0.24 0.24 96 1008.4
20260507105119 66 120 0.0 1.0 0.05 0.24 0.24 96 1008.2
20260507104617 66 129 1.0 1.0 0.05 0.24 0.24 96 1008.4
20260507104113 66 123 0.0 0.0 0.00 0.23 0.23 96 1008.4
20260507103609 66 136 0.0 1.0 0.00 0.23 0.23 96 1008.4
20260507103106 66 136 0.0 0.0 0.00 0.23 0.23 96 1008.3
20260507102602 66 121 0.0 0.0 0.07 0.23 0.23 96 1008.3
20260507102059 65 145 1.0 1.0 0.07 0.23 0.23 96 1008.5
20260507101554 65 151 0.0 0.0 0.00 0.22 0.22 96 1008.3
20260507101051 65 151 0.0 0.0 0.00 0.22 0.22 96 1008.4
20260507100548 65 141 0.0 0.0 0.00 0.22 0.22 96 1008.3
20260507100046 66 141 0.0 0.0 0.00 0.22 0.22 95 1008.1
20260507095544 66 141 0.0 0.0 0.00 0.22 0.22 95 1008.3
20260507095040 66 141 0.0 0.0 0.00 0.22 0.22 95 1008.3
20260507094536 66 142 0.0 0.0 0.00 0.22 0.22 95 1008.5
20260507094034 66 142 0.0 0.0 0.05 0.22 0.22 95 1008.4
20260507093531 66 142 0.0 0.0 0.05 0.22 0.22 95 1008.1
20260507093030 66 144 0.0 1.0 0.00 0.21 0.21 96 1008.2
20260507092525 66 136 0.0 3.0 0.00 0.21 0.21 96 1008.3
20260507092022 65 135 1.0 1.0 0.00 0.21 0.21 96 1008.3
20260507091519 65 121 0.0 0.0 0.14 0.21 0.21 96 1008.6
20260507091015 65 138 0.0 1.0 0.14 0.21 0.21 96 1008.3
20260507090511 65 133 0.0 1.0 0.00 0.19 0.19 96 1008.2
20260507090008 65 130 0.0 0.0 0.00 0.19 0.19 96 1008.5
20260507085505 65 131 0.0 1.0 0.12 0.19 0.19 96 1008.4
20260507085002 66 88 2.0 3.0 0.12 0.18 0.18 96 1008.1
20260507084459 66 127 1.0 1.0 0.05 0.17 0.17 96 1008.5
20260507083955 66 127 0.0 1.0 0.07 0.16 0.16 95 1008.9
20260507083452 65 127 0.0 1.0 0.07 0.16 0.16 96 1008.9
20260507082948 65 127 0.0 0.0 0.00 0.15 0.15 95 1009.1
20260507082445 65 127 0.0 0.0 0.05 0.15 0.15 95 1009.2
20260507081941 66 127 0.0 0.0 0.12 0.15 0.15 95 1009.2
20260507081438 66 113 0.0 1.0 0.07 0.14 0.14 95 1008.5
20260507080935 65 108 0.0 0.0 0.05 0.13 0.13 95 1008.9
20260507080430 65 133 0.0 0.0 0.05 0.13 0.13 95 1008.2
20260507075926 65 133 0.0 0.0 0.07 0.12 0.12 95 1008.6
20260507075422 65 132 0.0 0.0 0.07 0.12 0.12 95 1009.0
20260507074919 65 133 0.0 0.0 0.00 0.11 0.11 95 1009.0
20260507074416 65 140 0.0 0.0 0.00 0.11 0.11 95 1009.5
20260507073914 65 140 0.0 0.0 0.00 0.11 0.11 95 1009.4
20260507073410 65 145 0.0 2.0 0.00 0.11 0.11 95 1009.5
20260507072907 65 130 1.0 1.0 0.00 0.11 0.11 95 1009.3
20260507072404 65 134 0.0 0.0 0.00 0.11 0.11 95 1009.3
20260507071902 65 125 0.0 0.0 0.00 0.11 0.11 95 1009.6
20260507071359 65 125 0.0 1.0 0.00 0.11 0.11 95 1009.3
20260507070855 65 133 0.0 0.0 0.00 0.11 0.11 95 1009.0
20260507070353 65 133 0.0 0.0 0.00 0.11 0.11 95 1009.3
20260507065849 65 133 0.0 0.0 0.00 0.11 0.11 95 1009.2
20260507065346 65 133 0.0 0.0 0.00 0.11 0.11 95 1009.6
20260507064843 65 133 1.0 1.0 0.00 0.11 0.11 94 1009.6
20260507064341 66 133 0.0 0.0 0.00 0.11 0.11 95 1010.0
20260507063839 66 133 0.0 1.0 0.00 0.11 0.11 94 1009.8
20260507063335 66 133 0.0 0.0 0.00 0.11 0.11 94 1010.2
20260507062832 66 133 0.0 1.0 0.00 0.11 0.11 94 1009.8
20260507062329 66 134 0.0 1.0 0.00 0.11 0.11 94 1010.2
20260507061827 66 134 0.0 0.0 0.00 0.11 0.11 94 1010.4
20260507061325 66 134 0.0 0.0 0.00 0.11 0.11 94 1010.5
20260507060824 66 134 0.0 0.0 0.00 0.11 0.11 94 1010.4
20260507060320 66 134 0.0 0.0 0.00 0.11 0.11 94 1010.1
20260507055817 66 134 0.0 0.0 0.00 0.11 0.11 94 1009.9
20260507055311 66 134 0.0 0.0 0.00 0.11 0.11 93 1009.8
20260507054808 66 134 0.0 0.0 0.00 0.11 0.11 93 1010.0
20260507054305 66 134 0.0 0.0 0.00 0.11 0.11 93 1009.8
20260507053802 66 134 0.0 0.0 0.00 0.11 0.11 93 1009.5
20260507053259 66 135 1.0 1.0 0.05 0.11 0.11 93 1009.7
20260507052759 66 135 0.0 1.0 0.19 0.11 0.11 92 1009.4
20260507052254 67 131 0.0 1.0 0.19 0.10 0.10 92 1010.0
20260507051753 67 132 1.0 3.0 0.12 0.08 0.08 92 1010.7
20260507051249 67 157 0.0 0.0 0.12 0.06 0.06 91 1010.7
20260507050746 67 158 0.0 1.0 0.12 0.05 0.05 89 1010.9
20260507050243 68 150 0.0 1.0 0.12 0.04 0.04 88 1011.6
20260507045740 68 121 0.0 1.0 0.12 0.03 0.03 86 1011.8
20260507045236 69 136 0.0 0.0 0.12 0.02 0.02 84 1011.9
20260507044733 69 130 0.0 3.0 0.07 0.01 0.01 81 1011.9
20260507044229 69 137 0.0 1.0 0.00 0.00 0.00 80 1011.8
20260507043726 69 105 0.0 1.0 0.00 0.00 0.00 80 1011.3
20260507043223 68 70 0.0 2.0 0.00 0.00 0.00 81 1011.2
20260507042719 68 115 0.0 0.0 0.00 0.00 0.00 82 1011.2
20260507042214 68 115 0.0 0.0 0.00 0.00 0.00 82 1011.0
20260507041712 68 115 0.0 1.0 0.00 0.00 0.00 81 1011.0
20260507041208 69 114 0.0 0.0 0.00 0.00 0.00 81 1011.2
20260507040705 69 114 0.0 0.0 0.00 0.00 0.00 79 1010.8
20260507040201 69 114 0.0 0.0 0.00 0.00 0.00 78 1010.7
20260507035657 70 114 0.0 0.0 0.00 0.04 0.04 76 1010.6
20260507035153 70 114 0.0 0.0 0.00 0.04 0.04 74 1010.2
20260507034650 70 114 0.0 0.0 0.00 0.04 0.04 73 1010.2
20260507034148 70 114 0.0 1.0 0.00 0.04 0.04 72 1010.1
20260507033646 70 114 0.0 0.0 0.00 0.04 0.04 72 1010.2
20260507033143 70 113 0.0 0.0 0.00 0.04 0.04 73 1010.5
20260507032641 70 113 0.0 0.0 0.00 0.04 0.04 73 1010.3
20260507032136 70 113 0.0 0.0 0.00 0.04 0.04 72 1010.6
20260507031633 70 131 0.0 0.0 0.00 0.04 0.04 72 1010.7
20260507031130 71 131 0.0 0.0 0.00 0.04 0.04 72 1010.4
20260507030627 71 127 0.0 0.0 0.00 0.04 0.04 71 1010.3
20260507030124 71 127 0.0 0.0 0.00 0.04 0.04 70 1010.5
20260507025621 71 138 0.0 0.0 0.00 0.04 0.04 71 1010.3
20260507025118 71 139 0.0 0.0 0.00 0.04 0.04 69 1010.3
20260507024616 71 112 0.0 0.0 0.00 0.04 0.04 70 1010.1
20260507024113 71 112 0.0 1.0 0.00 0.04 0.04 69 1009.9
20260507023608 71 115 0.0 0.0 0.00 0.04 0.04 70 1010.2
20260507023106 71 114 0.0 0.0 0.00 0.04 0.04 70 1009.9
20260507022603 71 111 1.0 1.0 0.00 0.04 0.04 71 1010.4
20260507022058 71 121 0.0 1.0 0.00 0.04 0.04 71 1010.2
20260507021555 71 114 0.0 2.0 0.00 0.04 0.04 72 1010.1
20260507021051 70 131 0.0 0.0 0.00 0.04 0.04 73 1010.1
20260507020549 70 132 0.0 1.0 0.00 0.04 0.04 74 1010.2
20260507020045 70 128 0.0 0.0 0.00 0.04 0.04 73 1010.1